Hourly Weather Tuzla

Today, 14 August, Friday

Time Temperature Precipitation Wind Pressure Humidity
00:00 +21°C° 0.1 mm 1 mps 721 mmHg 85%
01:00 +19°C° 0 mm 2 mps 721 mmHg 87%
02:00 +19°C° 0.2 mm 2 mps 721 mmHg 87%
03:00 +20°C° 0.2 mm 1 mps 721 mmHg 88%
04:00 +20°C° 0.2 mm 1 mps 720 mmHg 88%
05:00 +21°C° 0.2 mm 1 mps 720 mmHg 86%
06:00 +22°C° 0.2 mm 1 mps 721 mmHg 85%
07:00 +23°C° 0.2 mm 1 mps 721 mmHg 83%
08:00 +26°C° 0 mm 1 mps 721 mmHg 73%
09:00 +28°C° 0 mm 1 mps 721 mmHg 63%
10:00 +31°C° 0 mm 1 mps 721 mmHg 54%
11:00 +31°C° 0 mm 1 mps 721 mmHg 51%
12:00 +32°C° 0 mm 1 mps 721 mmHg 48%
13:00 +32°C° 0 mm 1 mps 721 mmHg 45%
14:00 +30°C° 1.6 mm 1 mps 720 mmHg 58%
15:00 +27°C° 1.6 mm 2 mps 719 mmHg 70%
16:00 +24°C° 1.6 mm 2 mps 719 mmHg 82%
17:00 +23°C° 1.4 mm 2 mps 719 mmHg 86%
18:00 +22°C° 1.4 mm 1 mps 719 mmHg 89%
19:00 +21°C° 1.4 mm 1 mps 719 mmHg 93%
20:00 +21°C° 0.3 mm 1 mps 719 mmHg 92%
21:00 +20°C° 0.3 mm 1 mps 719 mmHg 91%
22:00 +20°C° 0.3 mm 1 mps 720 mmHg 91%
23:00 +20°C° 0.1 mm 1 mps 719 mmHg 91%

Tomorrow, 15 August, Saturday

Time Temperature Precipitation Wind Pressure Humidity
00:00 +20°C° 0.1 mm 1 mps 719 mmHg 91%
01:00 +19°C° 0.1 mm 1 mps 719 mmHg 91%
02:00 +19°C° 0.1 mm 1 mps 719 mmHg 91%
03:00 +19°C° 0.1 mm 1 mps 719 mmHg 92%
04:00 +19°C° 0.1 mm 1 mps 719 mmHg 92%
05:00 +20°C° 0.3 mm 1 mps 719 mmHg 91%
06:00 +19°C° 0.3 mm 0 mps 719 mmHg 91%
07:00 +20°C° 0.3 mm 0 mps 719 mmHg 90%
08:00 +23°C° 0.5 mm 1 mps 720 mmHg 85%
09:00 +24°C° 0.5 mm 1 mps 720 mmHg 79%
10:00 +26°C° 0.5 mm 2 mps 720 mmHg 74%
11:00 +26°C° 1.5 mm 1 mps 720 mmHg 75%
12:00 +26°C° 1.5 mm 1 mps 720 mmHg 75%
13:00 +27°C° 1.5 mm 1 mps 720 mmHg 76%
14:00 +27°C° 0.9 mm 1 mps 719 mmHg 75%
15:00 +27°C° 0.9 mm 1 mps 719 mmHg 74%
16:00 +27°C° 0.9 mm 1 mps 719 mmHg 73%
17:00 +25°C° 0.4 mm 1 mps 719 mmHg 77%
18:00 +21°C° 0.4 mm 0 mps 719 mmHg 81%
19:00 +20°C° 0.4 mm 0 mps 718 mmHg 85%
20:00 +19°C° 0.3 mm 0 mps 719 mmHg 87%
21:00 +18°C° 0.3 mm 0 mps 719 mmHg 89%
22:00 +18°C° 0.3 mm 0 mps 719 mmHg 90%
23:00 +18°C° 0 mm 0 mps 719 mmHg 91%

Day after tomorrow, 16 August, Sunday

Time Temperature Precipitation Wind Pressure Humidity
00:00 +17°C° 0 mm 0 mps 719 mmHg 91%
01:00 +17°C° 0 mm 0 mps 719 mmHg 92%
02:00 +17°C° 0 mm 0 mps 719 mmHg 93%
03:00 +17°C° 0 mm 0 mps 719 mmHg 93%
04:00 +16°C° 0 mm 0 mps 719 mmHg 93%
05:00 +17°C° 0 mm 0 mps 719 mmHg 92%
06:00 +19°C° 0 mm 0 mps 719 mmHg 91%
07:00 +20°C° 0 mm 0 mps 720 mmHg 89%
08:00 +22°C° 0 mm 0 mps 720 mmHg 81%
09:00 +24°C° 0 mm 0 mps 720 mmHg 72%
10:00 +28°C° 0 mm 1 mps 721 mmHg 63%
11:00 +28°C° 0.1 mm 1 mps 720 mmHg 61%
12:00 +29°C° 0.1 mm 1 mps 720 mmHg 59%
13:00 +29°C° 0.1 mm 1 mps 720 mmHg 57%
14:00 +29°C° 0.1 mm 1 mps 720 mmHg 59%
15:00 +29°C° 0.1 mm 1 mps 720 mmHg 60%
16:00 +29°C° 0.1 mm 1 mps 719 mmHg 61%
17:00 +27°C° 0 mm 1 mps 719 mmHg 69%
18:00 +25°C° 0 mm 1 mps 719 mmHg 77%
19:00 +23°C° 0 mm 1 mps 719 mmHg 85%
20:00 +22°C° 0 mm 1 mps 719 mmHg 86%
21:00 +22°C° 0 mm 1 mps 719 mmHg 88%
22:00 +21°C° 0 mm 1 mps 720 mmHg 90%
23:00 +21°C° 0 mm 1 mps 720 mmHg 90%

17 August, Monday

Time Temperature Precipitation Wind Pressure Humidity
00:00 +20°C° 0 mm 1 mps 720 mmHg 91%
01:00 +20°C° 0 mm 1 mps 720 mmHg 91%
02:00 +20°C° 0 mm 1 mps 719 mmHg 91%
03:00 +20°C° 0 mm 1 mps 719 mmHg 91%
04:00 +19°C° 0 mm 1 mps 719 mmHg 91%
05:00 +21°C° 0 mm 1 mps 719 mmHg 87%
06:00 +22°C° 0 mm 1 mps 719 mmHg 84%
07:00 +23°C° 0 mm 1 mps 720 mmHg 80%
08:00 +26°C° 0 mm 1 mps 720 mmHg 72%
09:00 +28°C° 0 mm 1 mps 720 mmHg 63%
10:00 +28°C° 0 mm 0 mps 720 mmHg 55%
11:00 +31°C° 0.1 mm 1 mps 720 mmHg 53%
12:00 +31°C° 0.1 mm 1 mps 720 mmHg 50%
13:00 +32°C° 0.1 mm 1 mps 720 mmHg 48%
14:00 +32°C° 0.1 mm 1 mps 720 mmHg 50%
15:00 +31°C° 0.1 mm 1 mps 719 mmHg 52%
16:00 +31°C° 0.1 mm 1 mps 719 mmHg 54%
17:00 +29°C° 0.1 mm 1 mps 719 mmHg 62%
18:00 +27°C° 0.1 mm 1 mps 719 mmHg 69%
19:00 +24°C° 0.1 mm 1 mps 719 mmHg 76%
20:00 +24°C° 0 mm 1 mps 719 mmHg 76%
21:00 +23°C° 0 mm 1 mps 719 mmHg 76%
22:00 +22°C° 0 mm 1 mps 719 mmHg 76%
23:00 +22°C° 0 mm 1 mps 719 mmHg 76%

18 August, Tuesday

Time Temperature Precipitation Wind Pressure Humidity
00:00 +20°C° 0 mm 2 mps 719 mmHg 76%
01:00 +20°C° 0 mm 2 mps 719 mmHg 76%
02:00 +20°C° 0 mm 2 mps 718 mmHg 77%
03:00 +19°C° 0 mm 2 mps 718 mmHg 77%
04:00 +19°C° 0 mm 2 mps 718 mmHg 78%
05:00 +20°C° 0 mm 2 mps 718 mmHg 76%
06:00 +22°C° 0 mm 1 mps 718 mmHg 74%
07:00 +23°C° 0 mm 1 mps 719 mmHg 72%
08:00 +26°C° 0 mm 1 mps 719 mmHg 64%
09:00 +28°C° 0 mm 1 mps 719 mmHg 55%
10:00 +29°C° 0 mm 0 mps 719 mmHg 47%
11:00 +31°C° 0 mm 1 mps 719 mmHg 46%
12:00 +31°C° 0 mm 1 mps 719 mmHg 45%
13:00 +31°C° 0 mm 2 mps 719 mmHg 44%
14:00 +30°C° 0.1 mm 1 mps 718 mmHg 52%
15:00 +28°C° 0.1 mm 1 mps 718 mmHg 60%
16:00 +27°C° 0.1 mm 1 mps 718 mmHg 68%
17:00 +25°C° 0 mm 1 mps 718 mmHg 72%
18:00 +24°C° 0 mm 1 mps 718 mmHg 76%
19:00 +21°C° 0 mm 0 mps 718 mmHg 80%
20:00 +20°C° 0.1 mm 0 mps 718 mmHg 83%
21:00 +19°C° 0.1 mm 0 mps 718 mmHg 85%
22:00 +18°C° 0.1 mm 0 mps 718 mmHg 88%
23:00 +18°C° 0.2 mm 0 mps 718 mmHg 90%

19 August, Wednesday

Time Temperature Precipitation Wind Pressure Humidity
00:00 +20°C° 0.2 mm 1 mps 718 mmHg 93%
01:00 +19°C° 0.2 mm 1 mps 718 mmHg 95%
02:00 +19°C° 0.5 mm 1 mps 718 mmHg 95%
03:00 +19°C° 0.5 mm 1 mps 718 mmHg 96%
04:00 +19°C° 0.5 mm 1 mps 718 mmHg 97%
05:00 +19°C° 0.2 mm 1 mps 719 mmHg 96%
06:00 +17°C° 0.2 mm 0 mps 719 mmHg 96%
07:00 +18°C° 0.2 mm 0 mps 719 mmHg 96%
08:00 +20°C° 0.1 mm 1 mps 719 mmHg 93%
09:00 +21°C° 0.1 mm 1 mps 719 mmHg 90%
10:00 +22°C° 0.1 mm 1 mps 719 mmHg 87%
11:00 +21°C° 0.4 mm 2 mps 719 mmHg 83%
12:00 +23°C° 0.4 mm 2 mps 719 mmHg 79%
13:00 +24°C° 0.4 mm 2 mps 719 mmHg 75%
14:00 +24°C° 0.3 mm 2 mps 718 mmHg 76%
15:00 +23°C° 0.3 mm 2 mps 718 mmHg 76%
16:00 +23°C° 0.3 mm 2 mps 718 mmHg 77%
17:00 +22°C° 0.1 mm 1 mps 718 mmHg 82%
18:00 +20°C° 0.1 mm 1 mps 718 mmHg 88%
19:00 +17°C° 0.1 mm 0 mps 718 mmHg 93%
20:00 +17°C° 0 mm 0 mps 718 mmHg 94%
21:00 +16°C° 0 mm 0 mps 718 mmHg 94%
22:00 +16°C° 0 mm 0 mps 718 mmHg 95%
23:00 +15°C° 0 mm 0 mps 718 mmHg 95%
Show more